{"data":{"norad_id":54158,"epoch":"2026-05-25T02:51:56.752704Z","epoch_age_seconds":67926,"freshness":"FRESH","line1":"1 54158U 22141B   26145.11940686  .00000455  00000+0  46694-4 0  9992","line2":"2 54158  53.2134  31.1463 0001575  91.7527 268.3645 15.08836643197252","mean_motion":15.08836643,"eccentricity":0.0001575,"inclination_deg":53.2134,"raan_deg":31.1463,"arg_perigee_deg":91.7527,"mean_anomaly_deg":268.3645,"bstar":4.6694e-5,"rev_number":19725,"period_min":95.437767016108,"perigee_km":538.66408221177,"apogee_km":540.84321776651,"semimajor_km":6917.8906499891,"source":"CELESTRAK","updated_at":"2026-05-25T13:38:17.659094Z"}}